Le nostre stazioni meteo in Italia

Pubblicità
Il mio iltempo24.it
Chillingham Barns, Gran Bretagna (99196): Temperatura & dewpoint: 17.10.2017 03:00:00 - 23.10.2017 03:00:00 (BST)Chillingham Barns, Gran Bretagna (99196): precipitazioni: 17.10.2017 03:00:00 - 23.10.2017 03:00:00 (BST)
Data & Tempo tt [°C] td [°C] rr [mm]
23.10.2017 03:00:00 8,0 4,7 -
23.10.2017 02:00:00 7,9 4,2 0,0
23.10.2017 01:00:00 7,5 3,6 0,0
23.10.2017 00:00:00 8,5 3,1 0,0
22.10.2017 23:00:00 8,1 4,0 0,0
22.10.2017 22:00:00 8,4 4,7 0,0
22.10.2017 21:00:00 9,0 5,5 0,0
22.10.2017 20:00:00 9,4 6,4 -
22.10.2017 19:00:00 10,3 6,8 0,0
22.10.2017 18:00:00 10,9 7,2 0,0
22.10.2017 17:00:00 12,5 8,4 0,0
22.10.2017 16:00:00 12,4 8,5 0,0
22.10.2017 15:00:00 12,6 8,7 0,0
22.10.2017 14:00:00 13,2 9,0 0,0
22.10.2017 13:00:00 13,4 9,4 0,0
22.10.2017 12:00:00 13,4 9,4 0,0
22.10.2017 11:00:00 12,5 9,3 0,0
22.10.2017 10:00:00 11,3 8,9 0,0
22.10.2017 09:00:00 11,1 8,6 0,0
22.10.2017 08:00:00 10,7 8,5 0,0
22.10.2017 07:00:00 10,6 9,1 -
22.10.2017 06:00:00 10,6 9,4 0,0
22.10.2017 05:00:00 - - 0,0
22.10.2017 04:00:00 10,5 9,2 0,0
22.10.2017 03:00:00 10,5 9,4 0,0
22.10.2017 02:00:00 10,9 9,8 0,0
22.10.2017 01:00:00 10,9 9,9 0,0
22.10.2017 00:00:00 10,6 10,2 0,0
21.10.2017 23:00:00 10,5 10,2 0,2
21.10.2017 22:00:00 10,7 10,5 0,0
21.10.2017 21:00:00 10,8 10,4 0,0
21.10.2017 20:00:00 11,0 10,3 0,0
21.10.2017 19:00:00 10,9 10,2 0,2
21.10.2017 18:00:00 11,2 10,0 0,2
21.10.2017 17:00:00 12,5 9,0 0,0
21.10.2017 16:00:00 12,9 9,5 0,0
21.10.2017 15:00:00 13,2 9,5 0,0
21.10.2017 14:00:00 13,0 9,4 0,0
21.10.2017 13:00:00 12,7 9,3 0,0
21.10.2017 12:00:00 13,1 9,8 0,0
21.10.2017 11:00:00 12,5 10,1 0,0
21.10.2017 10:00:00 12,3 10,1 0,0
21.10.2017 09:00:00 11,7 10,4 0,0
21.10.2017 08:00:00 11,4 10,5 0,0
21.10.2017 07:00:00 - - -
21.10.2017 06:00:00 - - -
21.10.2017 05:00:00 - - -
21.10.2017 04:00:00 - - -
21.10.2017 03:00:00 - - -
21.10.2017 02:00:00 - - -
21.10.2017 01:00:00 - - -
21.10.2017 00:00:00 - - -
20.10.2017 23:00:00 - - -
20.10.2017 22:00:00 - - -
20.10.2017 21:00:00 - - 0,0
20.10.2017 20:00:00 12,4 9,4 0,0
20.10.2017 19:00:00 13,4 11,4 0,0
20.10.2017 18:00:00 13,7 12,8 0,0
20.10.2017 17:00:00 14,0 12,9 0,0
20.10.2017 16:00:00 14,7 11,6 0,0
20.10.2017 15:00:00 15,9 11,8 0,0
20.10.2017 14:00:00 15,0 11,9 0,0
20.10.2017 13:00:00 14,7 12,5 0,0
20.10.2017 12:00:00 14,8 12,6 0,0
20.10.2017 11:00:00 13,3 13,3 0,0
20.10.2017 10:00:00 12,2 12,2 0,0
20.10.2017 09:00:00 12,1 12,1 0,0
20.10.2017 08:00:00 12,3 12,3 1,2
20.10.2017 07:00:00 12,4 12,4 0,8
20.10.2017 06:00:00 12,2 12,2 0,4
20.10.2017 05:00:00 12,2 12,1 0,8
20.10.2017 04:00:00 12,3 12,1 1,2
20.10.2017 03:00:00 12,4 12,2 1,2
20.10.2017 02:00:00 12,8 11,9 0,2
20.10.2017 01:00:00 13,3 12,6 0,0
20.10.2017 00:00:00 13,1 12,9 0,0
19.10.2017 23:00:00 12,8 12,8 0,6
19.10.2017 22:00:00 12,4 12,4 0,2
19.10.2017 21:00:00 12,5 12,5 0,4
19.10.2017 20:00:00 12,6 12,5 1,8
19.10.2017 19:00:00 12,1 11,8 1,6
19.10.2017 18:00:00 12,3 11,8 0,6
19.10.2017 17:00:00 12,6 11,9 0,2
19.10.2017 16:00:00 12,7 11,5 0,0
19.10.2017 15:00:00 12,8 11,4 0,0
19.10.2017 14:00:00 12,7 11,2 0,0
19.10.2017 13:00:00 12,6 11,2 0,0
19.10.2017 12:00:00 11,6 10,8 0,0
19.10.2017 11:00:00 10,9 10,6 0,0
19.10.2017 10:00:00 10,3 10,2 0,0
19.10.2017 09:00:00 10,1 10,0 0,0
19.10.2017 08:00:00 10,2 10,1 0,0
19.10.2017 07:00:00 10,4 10,4 0,0
19.10.2017 06:00:00 10,5 10,5 0,0
19.10.2017 05:00:00 10,2 10,2 1,2
19.10.2017 04:00:00 10,2 10,1 3,8
19.10.2017 03:00:00 10,9 9,7 0,0
19.10.2017 02:00:00 11,0 9,8 0,0
19.10.2017 01:00:00 11,0 10,0 0,0
19.10.2017 00:00:00 10,8 9,8 0,0
18.10.2017 23:00:00 10,6 9,7 0,0
18.10.2017 22:00:00 10,5 9,7 0,0
18.10.2017 21:00:00 10,5 9,5 0,0
18.10.2017 20:00:00 10,3 9,7 0,0
18.10.2017 19:00:00 9,8 9,2 0,2
18.10.2017 18:00:00 10,1 8,8 0,0
18.10.2017 17:00:00 10,4 8,9 0,0
18.10.2017 16:00:00 11,0 8,0 0,0
18.10.2017 15:00:00 11,5 8,8 0,0
18.10.2017 14:00:00 11,8 8,1 0,0
18.10.2017 13:00:00 11,5 8,9 0,0
18.10.2017 12:00:00 11,2 9,4 0,0
18.10.2017 11:00:00 11,0 9,2 0,0
18.10.2017 10:00:00 10,6 9,8 0,0
18.10.2017 09:00:00 10,0 9,4 0,0
18.10.2017 08:00:00 9,5 9,0 0,0
18.10.2017 07:00:00 9,5 9,3 0,0
18.10.2017 06:00:00 9,5 9,3 0,2
18.10.2017 05:00:00 9,3 9,0 0,0
18.10.2017 04:00:00 9,4 8,9 0,2
18.10.2017 03:00:00 9,6 9,5 0,0
18.10.2017 02:00:00 9,7 9,6 0,6
18.10.2017 01:00:00 9,9 9,8 0,2
18.10.2017 00:00:00 9,9 9,7 0,2
17.10.2017 23:00:00 10,0 9,6 0,6
17.10.2017 22:00:00 10,5 9,2 0,0
17.10.2017 21:00:00 11,3 8,5 0,0
17.10.2017 20:00:00 10,9 8,5 0,0
17.10.2017 19:00:00 11,0 8,4 0,0
17.10.2017 18:00:00 12,2 8,4 0,0
17.10.2017 17:00:00 13,2 8,5 0,0
17.10.2017 16:00:00 13,7 9,2 0,0
17.10.2017 15:00:00 13,0 9,0 0,0
17.10.2017 14:00:00 13,2 8,8 0,0
17.10.2017 13:00:00 12,7 9,0 0,0
17.10.2017 12:00:00 12,5 8,8 0,0
17.10.2017 11:00:00 12,0 8,5 0,0
17.10.2017 10:00:00 11,8 8,2 0,0
17.10.2017 09:00:00 11,6 8,2 0,0
17.10.2017 08:00:00 11,4 8,3 0,0
17.10.2017 07:00:00 11,5 8,2 0,0
17.10.2017 06:00:00 11,7 8,0 0,0
17.10.2017 05:00:00 11,7 8,0 0,0
17.10.2017 04:00:00 12,2 8,0 0,0
17.10.2017 03:00:00 12,9 8,7 0,0

tt = Temperatura
td = dewpoint
rr = precipitazioni

Stazioni seguenti

WeatherPro
AMSI
MeteoEarth